Torna al catalogo

THORAD AGENA D DEB

AttivoSSO
NORAD 5025·DEBRIS·🇺🇸 United States

Lanciato Apr 8, 1970 da Vandenberg Space Force Base

Loading…

Prossimi Passaggi

TLE

Source: Space-Track
1 05025U 70025HZ  26230.12279551  .00000166  00000-0  32790-3 0  9998
2 05025 100.0644 298.5660 0043766 220.8026 168.7775 13.50859385767762

Traccia THORAD AGENA D DEB in tempo reale con AllMySat

Download on the App Store